[[{"header":{"parameterUnit":"m.s-1","parameterCategory":1,"la1":30.2991,"la2":30.254,"lo1":-89.0895,"lo2":-89.0444,"dy":0.0017,"dx":0.0017,"nx":28,"ny":28,"refTime":"2025-03-21T09:00:00:Z","depth":0,"parameterNumber":2,"parameterNumberName":"U-component_of_WINDS"},"data":[0,0,0,0,0,0,0,0,0,0,0,0,0,0,0,0,0,0,0,0,0,0,0,0,0,0,0,0,0,0,0,0,0,0,0,0,0,0,0,0,0,0,0,0,0,0,0,0,0,0,0,0,0,0,0,0,0,0,1.03,1.0301,0,1.0375,1.0376,1.0377,1.0398,1.0398,1.0398,1.0397,1.0472,1.0474,1.0476,0,0,0,0,0,0,0,0,0,0,0,0,0,1.017,1.0172,1.03,1.0301,1.0302,1.0375,1.0376,1.0377,1.0398,1.0398,1.0397,1.0397,1.0471,1.0474,1.0476,0,0,0,0,0,0,0,0,0,0,0,0,0,1.0234,1.0173,1.03,1.0321,1.0324,1.0375,1.0376,1.0377,1.0399,1.0398,1.0397,1.0397,1.047,1.0473,1.0477,1.0511,0,0,1.0488,1.0489,0,0,0,0,0,0,0,0,1.023,1.0238,1.0317,1.032,1.0323,1.0377,1.0358,1.0422,1.0399,1.037,1.0397,1.0396,1.044,1.0446,1.0462,1.0514,1.0518,1.0488,1.049,1.0492,1.0493,0,0,0,0,0,0,0,1.0225,1.0235,1.033,1.0318,1.0322,1.0326,1.0334,1.037,1.0408,1.0372,1.0374,1.0383,1.0442,1.0458,1.0464,1.0519,1.0488,1.0491,1.0493,1.0495,1.0601,1.0602,0,0,0,0,0,0,1.0218,1.0231,1.0327,1.0332,1.0274,1.0328,1.0338,1.036,1.0407,1.0414,1.0384,1.0384,1.0452,1.0459,1.0466,1.0508,1.0492,1.0495,1.0497,1.0601,1.0602,1.0602,0,0,0,0,0,0,1.0215,1.0226,1.0324,1.0282,1.0295,1.0331,1.0356,1.0362,1.0378,1.0416,1.0422,1.0394,1.0452,1.0461,1.05,1.0511,1.0497,1.05,1.06,1.0601,1.0602,1.0593,0,0,0,0,0,0,1.0211,1.0225,1.024,1.0282,1.0297,1.0357,1.0357,1.0364,1.0385,1.0386,1.0427,1.0433,1.0452,1.0494,1.0503,1.0516,1.0503,1.0599,1.06,1.0602,1.0593,1.0594,1.0595,0,0,0,0,0,1.0206,1.0234,1.024,1.0252,1.0316,1.0358,1.0366,1.0389,1.0386,1.04,1.0423,1.0432,1.0509,1.0498,1.0508,1.0522,1.0598,1.06,1.0602,1.0592,1.0594,1.0595,0,0,0,0,0,0,1.0191,1.024,1.0247,1.029,1.032,1.0361,1.038,1.039,1.0421,1.042,1.0446,1.0455,1.0491,1.051,1.0498,1.0557,1.0554,1.0557,1.0543,1.0545,1.0546,1.054,1.0505,0,0,0,0,0,1.0192,1.0223,1.0264,1.0297,1.0312,1.0343,1.0362,1.0377,1.0409,1.0421,1.0448,1.0477,1.0508,1.0527,1.0558,1.0596,1.0604,1.061,1.0611,1.0612,1.0615,1.0635,1.0638,1.0608,1.0608,1.0608,0,0,1.0195,1.0226,1.0244,1.0295,1.032,1.035,1.0354,1.0386,1.0408,1.0426,1.0464,1.0484,1.0518,1.0556,1.0574,1.0573,1.0625,1.0614,1.0614,1.0617,1.0637,1.064,1.0642,1.0609,1.0609,1.0608,0,0,1.0217,1.0244,1.0274,1.0299,1.0336,1.0357,1.0364,1.0404,1.0419,1.0457,1.047,1.0496,1.0549,1.0573,1.0591,1.062,1.0628,1.0629,1.0635,1.0654,1.0657,1.0659,1.0668,1.0671,1.0632,1.0632,1.0632,0,1.0216,1.0263,1.0288,1.0319,1.034,1.0358,1.0388,1.041,1.0455,1.0469,1.0468,1.0533,1.0558,1.0601,1.0607,1.0622,1.063,1.0624,1.0654,1.0657,1.0659,1.0668,1.0672,1.0632,1.0632,1.0632,1.0632,0,1.0259,1.0292,1.0311,1.0355,1.0378,1.0409,1.0436,1.0457,1.0469,1.0489,1.0527,1.0557,1.0593,1.0604,1.0616,1.0648,1.0647,1.065,1.0647,1.0661,1.067,1.0674,1.0631,1.0631,1.0631,1.0631,0,0,1.0273,1.033,1.0336,1.0356,1.0398,1.0423,1.0453,1.0489,1.0506,1.0536,1.0561,1.0604,1.0607,1.0628,1.0643,1.066,1.0679,1.0661,1.0662,1.0662,1.0715,1.0712,1.0715,1.0685,1.0686,1.0687,1.0712,0,1.0299,1.0355,1.0377,1.0422,1.0452,1.0468,1.0494,1.0522,1.0542,1.0568,1.0589,1.0619,1.0621,1.0633,1.0651,1.0673,1.069,1.0672,1.0707,1.0708,1.0698,1.072,1.0718,1.074,1.0715,1.0716,1.0716,0,1.0337,1.0368,1.0416,1.0454,1.0467,1.049,1.0524,1.055,1.0581,1.0594,1.0617,1.0631,1.0661,1.0656,1.0698,1.0685,1.0701,1.0714,1.0715,1.0719,1.0713,1.0724,1.0748,1.0751,1.0722,1.0722,1.0721,0,1.0341,1.0395,1.043,1.0446,1.0492,1.0507,1.0527,1.0557,1.0577,1.0606,1.0619,1.0651,1.0669,1.0692,1.0714,1.0709,1.0753,1.075,1.0763,1.0762,1.0772,1.0771,1.0797,1.0783,1.0783,1.0782,1.0782,0,1.0367,1.0396,1.0432,1.0454,1.0486,1.051,1.0541,1.0561,1.0588,1.0613,1.0629,1.0651,1.0678,1.0704,1.0721,1.0752,1.076,1.077,1.0774,1.0768,1.0767,1.0778,1.0777,1.0783,1.0783,1.0783,1.0783,0,1.0377,1.0403,1.0443,1.0482,1.0492,1.0514,1.0547,1.0568,1.0587,1.0618,1.0627,1.0657,1.0688,1.0712,1.0752,1.0763,1.0796,1.08,1.0785,1.0787,1.0798,1.0797,1.0833,1.0839,1.0821,1.0821,1.0821,0,1.0392,1.0414,1.0456,1.0474,1.0494,1.0523,1.0543,1.0567,1.0587,1.0624,1.064,1.0672,1.0699,1.0747,1.0772,1.0802,1.0807,1.0818,1.0812,1.0805,1.0806,1.0805,1.0806,1.0819,1.0819,1.0819,1.0819,0,1.0415,1.0427,1.0456,1.0489,1.0513,1.054,1.0568,1.0581,1.061,1.0632,1.0664,1.0685,1.0726,1.0757,1.0789,1.0808,1.0817,1.082,1.0825,1.0819,1.0809,1.0814,1.0787,1.082,1.0819,1.0819,1.0819,1.0819,1.0427,1.0447,1.048,1.0511,1.0535,1.056,1.0581,1.0603,1.0631,1.0666,1.0679,1.0711,1.074,1.0785,1.0804,1.0829,1.0829,1.0836,1.0837,1.0838,1.0837,1.0806,1.0835,1.0835,1.0835,1.0835,1.0835,0,1.045,1.0472,1.0501,1.0539,1.0563,1.0571,1.0602,1.0621,1.065,1.0677,1.0703,1.0739,1.0769,1.0796,1.0827,1.0842,1.0847,1.0849,1.0848,1.0851,1.0836,1.0829,1.0844,1.0844,1.0844,1.0844,1.0844,1.0844,1.0465,1.05,1.0515,1.056,1.0581,1.0614,1.063,1.0653,1.0674,1.0714,1.0739,1.0757,1.0783,1.0816,1.0843,1.085,1.086,1.0861,1.0869,1.0854,1.0853,1.0851,1.0845,1.0863,1.0863,1.0883,1.0883,1.0883]},{"header":{"parameterUnit":"m.s-1","parameterCategory":1,"la1":30.2991,"la2":30.254,"lo1":-89.0895,"lo2":-89.0444,"dy":0.0017,"dx":0.0017,"nx":28,"ny":28,"refTime":"2025-03-21T09:00:00:Z","depth":0,"parameterNumber":3,"parameterNumberName":"V-component_of_WINDS"},"data":[0,0,0,0,0,0,0,0,0,0,0,0,0,0,0,0,0,0,0,0,0,0,0,0,0,0,0,0,0,0,0,0,0,0,0,0,0,0,0,0,0,0,0,0,0,0,0,0,0,0,0,0,0,0,0,0,0,0,4.0665,4.0665,0,4.0649,4.0649,4.0649,4.0591,4.059,4.0589,4.0588,4.0573,4.0574,4.0574,0,0,0,0,0,0,0,0,0,0,0,0,0,4.0645,4.0646,4.0665,4.0665,4.0664,4.0649,4.0649,4.0649,4.0592,4.059,4.0589,4.0587,4.0573,4.0574,4.0575,0,0,0,0,0,0,0,0,0,0,0,0,0,4.0644,4.0646,4.0665,4.0634,4.0631,4.0649,4.0649,4.0649,4.0592,4.059,4.0588,4.0586,4.0572,4.0573,4.0575,4.0622,0,0,4.0578,4.0579,0,0,0,0,0,0,0,0,4.0644,4.0645,4.0639,4.0636,4.0633,4.062,4.0637,4.064,4.0593,4.0607,4.0588,4.0585,4.059,4.059,4.0591,4.0621,4.062,4.0579,4.0579,4.058,4.058,0,0,0,0,0,0,0,4.0644,4.0645,4.0659,4.0639,4.0635,4.0621,4.0619,4.0637,4.061,4.0605,4.0601,4.06,4.0588,4.059,4.0591,4.062,4.0579,4.058,4.058,4.0581,4.0687,4.0689,0,0,0,0,0,0,4.0649,4.0646,4.0659,4.0658,4.0634,4.0623,4.062,4.0626,4.0609,4.0605,4.0602,4.0598,4.0589,4.0589,4.059,4.0643,4.058,4.0581,4.0582,4.0685,4.0687,4.069,0,0,0,0,0,0,4.0649,4.0651,4.066,4.0651,4.0651,4.0625,4.0633,4.0627,4.0629,4.0607,4.0602,4.0609,4.0588,4.0588,4.0614,4.0641,4.0582,4.0583,4.0682,4.0686,4.0688,4.075,0,0,0,0,0,0,4.0648,4.0651,4.0668,4.0652,4.0652,4.0684,4.0634,4.0628,4.0631,4.0625,4.0612,4.0608,4.0586,4.0612,4.0615,4.0642,4.0584,4.068,4.0684,4.0687,4.0745,4.0755,4.0763,0,0,0,0,0,4.0648,4.0687,4.0669,4.0671,4.0673,4.0686,4.0686,4.066,4.0634,4.0651,4.0637,4.0608,4.0638,4.0616,4.0618,4.0646,4.0678,4.0683,4.0687,4.0741,4.0753,4.0762,0,0,0,0,0,0,4.0708,4.0684,4.0665,4.0699,4.0695,4.0676,4.0697,4.0673,4.0676,4.0671,4.0638,4.0636,4.0666,4.0659,4.0634,4.069,4.0653,4.0659,4.0694,4.0704,4.0713,4.0713,4.0585,0,0,0,0,0,4.0725,4.0737,4.0716,4.0748,4.0747,4.0723,4.0727,4.0708,4.0702,4.07,4.0687,4.0683,4.0692,4.0698,4.0704,4.0744,4.074,4.0765,4.0774,4.0781,4.0785,4.0805,4.0815,4.0705,4.0705,4.0705,0,0,4.0761,4.0749,4.0759,4.076,4.0754,4.0768,4.0722,4.0738,4.0747,4.0702,4.0725,4.0717,4.071,4.0743,4.0756,4.0737,4.0815,4.0787,4.0793,4.0793,4.0811,4.0821,4.083,4.0708,4.0707,4.0707,0,0,4.0832,4.0825,4.0851,4.0846,4.0838,4.0821,4.0827,4.0812,4.0804,4.0827,4.0793,4.0805,4.082,4.0816,4.0816,4.0886,4.086,4.0889,4.0935,4.0954,4.0963,4.097,4.0994,4.1003,4.0894,4.0895,4.0895,0,4.0877,4.0896,4.0867,4.0885,4.0886,4.0846,4.0872,4.0869,4.0864,4.0865,4.0844,4.0862,4.0855,4.0886,4.0903,4.0905,4.091,4.089,4.0964,4.0971,4.0978,4.1,4.1009,4.0898,4.0898,4.0897,4.0897,0,4.0951,4.0964,4.0986,4.0981,4.0985,4.1007,4.0982,4.0989,4.097,4.0955,4.0979,4.0969,4.0972,4.0978,4.096,4.1006,4.0995,4.0969,4.0931,4.0992,4.1012,4.1021,4.0903,4.0902,4.0901,4.09,0,0,4.1059,4.1038,4.1046,4.1043,4.1031,4.1041,4.1061,4.1064,4.107,4.1068,4.1084,4.1098,4.1074,4.1074,4.1054,4.1072,4.1126,4.1044,4.1043,4.1058,4.1176,4.1194,4.1204,4.1109,4.1111,4.1112,4.1176,0,4.1125,4.1158,4.1133,4.1169,4.1181,4.1143,4.116,4.1155,4.1143,4.1151,4.1137,4.1147,4.1115,4.1115,4.113,4.1116,4.1149,4.1112,4.1123,4.1124,4.1124,4.1215,4.1234,4.1295,4.1184,4.1185,4.1186,0,4.1207,4.1208,4.1246,4.123,4.1234,4.125,4.125,4.1259,4.1252,4.1241,4.1242,4.1218,4.1236,4.12,4.1225,4.12,4.1203,4.1197,4.1199,4.1198,4.1158,4.1215,4.1314,4.1323,4.1199,4.1198,4.1197,0,4.128,4.1291,4.1314,4.1313,4.1296,4.1308,4.1302,4.1293,4.1296,4.1297,4.1298,4.1302,4.1303,4.1306,4.1283,4.1259,4.1311,4.1273,4.1302,4.1303,4.1313,4.1313,4.1413,4.1318,4.1318,4.1318,4.1318,0,4.1356,4.138,4.1346,4.1361,4.1387,4.1358,4.1385,4.1375,4.1367,4.1379,4.1347,4.1359,4.1329,4.1338,4.1321,4.1343,4.1344,4.1336,4.1331,4.1338,4.1339,4.1339,4.1333,4.132,4.132,4.1319,4.1319,0,4.1441,4.142,4.1443,4.1425,4.1421,4.1441,4.1425,4.1438,4.1424,4.1439,4.1441,4.1418,4.1427,4.1405,4.141,4.1399,4.1431,4.142,4.1433,4.1429,4.1458,4.1455,4.156,4.1572,4.1472,4.1473,4.1474,0,4.149,4.1508,4.1492,4.1497,4.1492,4.1502,4.1504,4.1477,4.1481,4.1475,4.1488,4.1494,4.1497,4.1513,4.1497,4.1501,4.1488,4.1525,4.1489,4.1495,4.1487,4.1486,4.1487,4.1532,4.1533,4.1534,4.1535,0,4.1579,4.1568,4.1573,4.1574,4.1578,4.1578,4.1575,4.1582,4.1553,4.1559,4.1567,4.1569,4.1575,4.1581,4.1581,4.1575,4.155,4.1547,4.1554,4.156,4.1566,4.1562,4.1451,4.1544,4.1543,4.1543,4.1542,4.1542,4.1647,4.166,4.1651,4.1657,4.1652,4.1651,4.1661,4.1648,4.1654,4.1655,4.164,4.1651,4.1644,4.1641,4.1638,4.1646,4.1629,4.164,4.1642,4.1644,4.1649,4.1567,4.1647,4.1646,4.1646,4.1646,4.1646,0,4.1733,4.1725,4.1731,4.1728,4.1733,4.171,4.1706,4.1711,4.1721,4.1717,4.172,4.1729,4.1735,4.172,4.1723,4.1733,4.1721,4.1734,4.1733,4.1731,4.1664,4.1657,4.1743,4.1743,4.1743,4.1743,4.1743,4.1743,4.1778,4.1799,4.1786,4.1804,4.1796,4.1807,4.1806,4.1805,4.18,4.1811,4.1816,4.1806,4.1797,4.1799,4.1803,4.1799,4.1801,4.1817,4.1809,4.1746,4.1736,4.1727,4.172,4.1819,4.1819,4.1875,4.1876,4.1876]}]]